FW1247 Weather Reports


time (UTC)temp
C
wind
direction
speed
KPH
gust
KPH
rain 1hr
cm
rain 24hr
cm
rain mn
cm
humidity
%
barometer
mb
20260508101544 13 90 16.1 30.6 0.00 0.00 0.00 43 1019.3
20260508100042 13 101 20.9 29.0 0.00 0.00 0.00 41 1019.4
20260508094558 13 65 14.5 27.4 0.00 0.00 0.00 44 1019.2
20260508093036 13 105 14.5 27.4 0.00 0.00 0.00 47 1019.4
20260508091539 13 115 14.5 20.9 0.00 0.00 0.00 44 1019.3
20260508090029 13 90 14.5 25.7 0.00 0.00 0.00 36 1019.3
20260508084524 12 98 12.9 24.1 0.00 0.00 0.00 46 1019.3
20260508083020 12 108 12.9 20.9 0.00 0.00 0.00 47 1019.3
20260508081543 12 117 14.5 22.5 0.00 0.00 0.00 47 1019.2
20260508080013 12 115 12.9 20.9 0.00 0.00 0.00 52 1019.1
20260508074509 12 72 9.7 20.9 0.00 0.00 0.00 51 1019.0
20260508073005 12 136 8.0 16.1 0.00 0.00 0.00 54 1018.8
20260508071502 12 96 11.3 16.1 0.00 0.00 0.00 58 1018.7
20260508070057 12 139 9.7 16.1 0.00 0.00 0.00 60 1018.6
20260508064554 11 119 9.7 17.7 0.00 0.00 0.00 65 1018.5
20260508063056 11 150 6.4 14.5 0.00 0.00 0.00 74 1018.3
20260508061551 11 154 6.4 14.5 0.00 0.00 0.00 77 1018.2
20260508060039 11 128 6.4 9.7 0.00 0.00 0.00 78 1018.1
20260508054534 10 95 4.8 9.7 0.00 0.00 0.00 76 1018.0
20260508053030 8 94 3.2 6.4 0.00 0.00 0.00 80 1017.9
20260508051527 8 194 0.0 1.6 0.00 0.00 0.00 85 1017.9
20260508050021 6 194 0.0 0.0 0.00 0.00 0.00 86 1017.8
20260508044521 5 194 0.0 1.6 0.00 0.00 0.00 87 1017.7
20260508043014 4 194 0.0 0.0 0.00 0.00 0.00 90 1017.7
20260508041511 3 194 0.0 0.0 0.00 0.00 0.00 89 1017.6
20260508040008 2 194 0.0 0.0 0.00 0.00 0.00 89 1017.5
20260508034504 2 194 0.0 0.0 0.00 0.00 0.00 89 1017.4
20260508033002 2 194 0.0 0.0 0.00 0.00 0.00 88 1017.3
20260508031602 2 194 0.0 0.0 0.00 0.00 0.00 88 1017.2
20260508030103 2 194 0.0 1.6 0.00 0.00 0.00 88 1017.1
20260508024557 2 194 0.0 3.2 0.00 0.00 0.00 88 1017.0
20260508023054 3 194 0.0 0.0 0.00 0.00 0.00 88 1016.9
20260508021556 3 194 0.0 0.0 0.00 0.00 0.00 88 1017.0
20260508020059 3 194 1.6 3.2 0.00 0.00 0.00 85 1017.0
20260508014553 3 194 1.6 3.2 0.00 0.00 0.00 85 1016.9
20260508013049 3 194 1.6 3.2 0.00 0.00 0.00 85 1016.9
20260508011546 3 194 0.0 0.0 0.00 0.00 0.00 85 1016.9
20260508010045 3 194 0.0 0.0 0.00 0.00 0.00 84 1017.0
20260508004544 3 194 0.0 0.0 0.00 0.00 0.00 84 1017.0
20260508003040 3 194 0.0 0.0 0.00 0.00 0.00 83 1016.9
20260508001538 4 194 0.0 0.0 0.00 0.00 0.00 83 1016.9
20260508000040 4 194 0.0 0.0 0.00 0.00 0.00 83 1016.8
20260507234535 4 194 0.0 0.0 0.00 0.00 0.00 83 1016.8
20260507233040 5 194 0.0 0.0 0.00 0.00 0.00 83 1016.8
20260507231535 5 194 0.0 0.0 0.00 0.00 0.00 84 1016.7
20260507230028 5 194 0.0 0.0 0.00 0.00 0.00 83 1016.6
20260507224531 5 194 0.0 0.0 0.00 0.00 0.00 83 1016.6
20260507223026 6 194 0.0 0.0 0.00 0.00 0.00 82 1016.6
20260507221532 6 194 0.0 0.0 0.00 0.00 0.00 82 1016.5
20260507220021 6 194 0.0 0.0 0.00 0.00 0.00 80 1016.4
20260507214519 6 194 0.0 0.0 0.00 0.00 0.00 81 1016.4
20260507213018 6 194 0.0 1.6 0.00 0.00 0.00 78 1016.4
20260507211522 7 194 0.0 0.0 0.00 0.00 0.00 78 1016.2
20260507210015 7 194 0.0 0.0 0.00 0.00 0.00 79 1016.1
20260507204513 7 194 0.0 0.0 0.00 0.00 0.00 77 1016.0
20260507203012 8 194 0.0 0.0 0.00 0.00 0.00 77 1015.9
20260507201511 8 194 0.0 0.0 0.00 0.00 0.00 71 1015.7
20260507200010 8 194 0.0 0.0 0.00 0.00 0.00 72 1015.6
20260507194507 9 194 0.0 0.0 0.00 0.00 0.00 66 1015.5
20260507193005 10 194 0.0 0.0 0.00 0.00 0.00 65 1015.3
20260507191505 10 194 0.0 1.6 0.00 0.00 0.00 63 1015.2
20260507190005 11 194 0.0 1.6 0.00 0.00 0.00 61 1015.1
20260507184502 11 194 0.0 1.6 0.00 0.00 0.00 60 1015.0
20260507183007 12 139 0.0 1.6 0.00 0.00 0.00 56 1015.0
20260507181501 12 139 1.6 3.2 0.00 0.00 0.00 53 1014.9
20260507180100 12 139 0.0 3.2 0.00 0.00 0.00 53 1014.8
20260507174559 12 139 0.0 3.2 0.00 0.00 0.00 52 1014.8
20260507173103 12 142 1.6 6.4 0.00 0.00 0.00 52 1014.7
20260507171604 12 140 0.0 6.4 0.00 0.00 0.00 51 1014.6
20260507164600 12 131 6.4 12.9 0.00 0.00 0.00 52 1014.4
20260507163053 13 101 9.7 17.7 0.00 0.00 0.00 50 1014.3
20260507161554 13 131 9.7 14.5 0.00 0.00 0.00 50 1014.2
20260507160054 13 360 9.7 14.5 0.00 0.00 0.00 49 1014.2
20260507154554 13 89 11.3 19.3 0.00 0.00 0.00 50 1014.1
20260507153048 13 99 8.0 19.3 0.00 0.00 0.00 51 1014.0
20260507151548 13 92 11.3 17.7 0.00 0.00 0.00 50 1014.0
20260507150047 13 153 9.7 17.7 0.00 0.00 0.00 51 1013.9
20260507144545 13 115 8.0 20.9 0.00 0.00 0.00 48 1013.7
20260507143044 13 101 12.9 20.9 0.00 0.00 0.00 46 1013.5
20260507141542 13 112 11.3 20.9 0.00 0.00 0.00 46 1013.6
20260507140036 13 93 11.3 22.5 0.00 0.00 0.00 47 1013.6
20260507134534 13 94 9.7 17.7 0.00 0.00 0.00 48 1013.7
20260507133027 13 69 11.3 20.9 0.00 0.00 0.00 47 1013.8
20260507131530 14 95 8.0 19.3 0.00 0.00 0.00 50 1013.7
20260507130021 13 94 8.0 20.9 0.00 0.00 0.00 48 1013.7
20260507124528 14 85 9.7 19.3 0.00 0.00 0.00 48 1013.7
20260507123019 13 103 17.7 27.4 0.00 0.00 0.00 49 1013.7
20260507121517 13 109 12.9 24.1 0.00 0.00 0.00 52 1013.6
20260507120018 13 101 19.3 29.0 0.00 0.00 0.00 52 1013.4
20260507114514 13 146 11.3 20.9 0.00 0.00 0.00 55 1013.3
20260507113015 13 79 11.3 22.5 0.00 0.00 0.00 60 1013.3
20260507111510 13 97 14.5 20.9 0.00 0.00 0.00 61 1013.2
20260507110010 13 95 12.9 25.7 0.00 0.00 0.00 63 1013.3
20260507104508 15 97 11.3 22.5 0.00 0.00 0.00 62 1013.2
20260507103008 13 75 11.3 24.1 0.00 0.00 0.00 67 1013.1